| time (UTC) | temp F | wind direction | speed MPH | gust MPH | rain 1hr in | rain 24hr in | rain mn in | humidity % | barometer mb |
| 20260510081039 | 67 | 256 | 0.0 | 0.0 | 0.00 | 0.01 | 0.01 | 99 | 1013.2 |
| 20260510080538 | 67 | 244 | 0.0 | 1.0 | 0.00 | 0.01 | 0.01 | 99 | 1013.4 |
| 20260510080035 | 67 | 284 | 0.0 | 0.0 | 0.00 | 0.01 | 0.01 | 99 | 1013.4 |
| 20260510075532 | 67 | 270 | 0.0 | 0.0 | 0.00 | 0.01 | 0.01 | 99 | 1013.4 |
| 20260510075029 | 67 | 291 | 1.0 | 1.0 | 0.00 | 0.01 | 0.01 | 99 | 1013.4 |
| 20260510074527 | 67 | 273 | 1.0 | 1.0 | 0.00 | 0.01 | 0.01 | 99 | 1013.4 |
| 20260510074022 | 67 | 288 | 1.0 | 1.0 | 0.00 | 0.01 | 0.01 | 99 | 1013.5 |
| 20260510073518 | 67 | 238 | 0.0 | 0.0 | 0.00 | 0.01 | 0.01 | 99 | 1013.4 |
| 20260510073015 | 67 | 305 | 1.0 | 1.0 | 0.00 | 0.01 | 0.01 | 99 | 1013.4 |
| 20260510072512 | 67 | 280 | 0.0 | 0.0 | 0.00 | 0.01 | 0.01 | 99 | 1013.3 |
| 20260510072007 | 67 | 288 | 0.0 | 0.0 | 0.00 | 0.01 | 0.01 | 99 | 1013.2 |
| 20260510071504 | 67 | 271 | 0.0 | 0.0 | 0.00 | 0.01 | 0.01 | 99 | 1013.3 |
| 20260510071002 | 67 | 282 | 1.0 | 1.0 | 0.00 | 0.01 | 0.01 | 99 | 1013.1 |
| 20260510070459 | 67 | 254 | 0.0 | 0.0 | 0.00 | 0.01 | 0.01 | 99 | 1013.2 |
| 20260510065954 | 67 | 295 | 0.0 | 1.0 | 0.00 | 0.01 | 0.01 | 99 | 1013.0 |
| 20260510065452 | 67 | 310 | 1.0 | 1.0 | 0.00 | 0.01 | 0.01 | 99 | 1013.3 |
| 20260510064948 | 67 | 350 | 0.0 | 1.0 | 0.00 | 0.01 | 0.01 | 99 | 1013.3 |
| 20260510064445 | 67 | 272 | 0.0 | 1.0 | 0.00 | 0.01 | 0.01 | 99 | 1013.1 |
| 20260510063942 | 67 | 273 | 0.0 | 1.0 | 0.00 | 0.01 | 0.01 | 99 | 1013.1 |
| 20260510063438 | 67 | 283 | 1.0 | 1.0 | 0.00 | 0.01 | 0.01 | 99 | 1013.2 |
| 20260510062936 | 67 | 273 | 0.0 | 0.0 | 0.00 | 0.01 | 0.01 | 99 | 1013.0 |
| 20260510062436 | 68 | 254 | 0.0 | 1.0 | 0.00 | 0.01 | 0.01 | 99 | 1013.3 |
| 20260510061932 | 68 | 278 | 0.0 | 0.0 | 0.07 | 0.01 | 0.01 | 99 | 1013.1 |
| 20260510061429 | 68 | 178 | 0.0 | 1.0 | 0.07 | 0.01 | 0.01 | 99 | 1013.5 |
| 20260510060925 | 68 | 254 | 0.0 | 1.0 | 0.00 | 0.00 | 0.00 | 99 | 1013.4 |
| 20260510060422 | 67 | 252 | 0.0 | 1.0 | 0.00 | 0.00 | 0.00 | 99 | 1013.3 |
| 20260510055918 | 67 | 253 | 0.0 | 0.0 | 0.00 | 0.00 | 0.00 | 99 | 1013.4 |
| 20260510055414 | 67 | 253 | 0.0 | 0.0 | 0.00 | 0.00 | 0.00 | 99 | 1013.5 |
| 20260510054912 | 68 | 250 | 0.0 | 0.0 | 0.00 | 0.00 | 0.00 | 99 | 1013.3 |
| 20260510054408 | 67 | 250 | 0.0 | 0.0 | 0.00 | 0.00 | 0.00 | 99 | 1013.3 |
| 20260510053902 | 68 | 279 | 0.0 | 1.0 | 0.00 | 0.00 | 0.00 | 99 | 1013.6 |
| 20260510053359 | 67 | 250 | 0.0 | 0.0 | 0.00 | 0.00 | 0.00 | 99 | 1013.3 |
| 20260510052855 | 68 | 250 | 1.0 | 1.0 | 0.00 | 0.00 | 0.00 | 99 | 1013.3 |
| 20260510052351 | 68 | 242 | 0.0 | 0.0 | 0.00 | 0.00 | 0.00 | 99 | 1013.4 |
| 20260510051847 | 68 | 257 | 0.0 | 0.0 | 0.00 | 0.00 | 0.00 | 99 | 1013.5 |
| 20260510051344 | 68 | 230 | 0.0 | 0.0 | 0.00 | 0.00 | 0.00 | 99 | 1013.5 |
| 20260510050841 | 68 | 277 | 1.0 | 1.0 | 0.00 | 0.00 | 0.00 | 99 | 1013.5 |
| 20260510050337 | 68 | 261 | 0.0 | 0.0 | 0.00 | 0.00 | 0.00 | 99 | 1013.7 |
| 20260510045835 | 68 | 261 | 0.0 | 1.0 | 0.00 | 2.23 | 2.23 | 99 | 1013.5 |
| 20260510045331 | 68 | 248 | 1.0 | 1.0 | 0.00 | 2.23 | 2.23 | 99 | 1013.4 |
| 20260510044829 | 67 | 246 | 1.0 | 1.0 | 0.00 | 2.23 | 2.23 | 99 | 1013.6 |
| 20260510044325 | 67 | 228 | 0.0 | 1.0 | 0.00 | 2.23 | 2.23 | 99 | 1013.4 |
| 20260510043821 | 67 | 229 | 1.0 | 1.0 | 0.00 | 2.23 | 2.23 | 99 | 1013.4 |
| 20260510043317 | 67 | 215 | 0.0 | 0.0 | 0.00 | 2.23 | 2.23 | 99 | 1013.1 |
| 20260510042816 | 67 | 222 | 0.0 | 0.0 | 0.00 | 2.23 | 2.23 | 99 | 1013.3 |
| 20260510042311 | 68 | 220 | 0.0 | 0.0 | 0.00 | 2.23 | 2.23 | 99 | 1013.1 |
| 20260510041808 | 68 | 223 | 0.0 | 1.0 | 0.00 | 2.23 | 2.23 | 99 | 1012.8 |
| 20260510041305 | 68 | 209 | 1.0 | 1.0 | 0.00 | 2.23 | 2.23 | 99 | 1012.8 |
| 20260510040803 | 68 | 221 | 0.0 | 1.0 | 0.00 | 2.23 | 2.23 | 99 | 1012.7 |
| 20260510040259 | 68 | 295 | 0.0 | 2.0 | 0.00 | 2.23 | 2.23 | 99 | 1012.5 |
| 20260510035754 | 68 | 239 | 1.0 | 1.0 | 0.00 | 2.23 | 2.23 | 99 | 1012.8 |
| 20260510035250 | 68 | 184 | 2.0 | 2.0 | 0.00 | 2.23 | 2.23 | 99 | 1012.6 |
| 20260510034746 | 68 | 307 | 1.0 | 2.0 | 0.00 | 2.23 | 2.23 | 99 | 1012.7 |
| 20260510034245 | 68 | 223 | 2.0 | 2.0 | 0.00 | 2.23 | 2.23 | 99 | 1012.7 |
| 20260510033740 | 68 | 239 | 1.0 | 2.0 | 0.00 | 2.23 | 2.23 | 99 | 1012.8 |
| 20260510033238 | 68 | 308 | 1.0 | 2.0 | 0.00 | 2.23 | 2.23 | 99 | 1012.7 |
| 20260510032734 | 68 | 272 | 1.0 | 1.0 | 0.00 | 2.23 | 2.23 | 99 | 1012.5 |
| 20260510032230 | 68 | 262 | 3.0 | 5.0 | 0.00 | 2.23 | 2.23 | 99 | 1013.0 |
| 20260510031725 | 68 | 255 | 1.0 | 1.0 | 0.00 | 2.23 | 2.23 | 99 | 1012.9 |
| 20260510031222 | 68 | 237 | 2.0 | 2.0 | 0.00 | 2.23 | 2.23 | 99 | 1013.0 |
| 20260510030721 | 68 | 216 | 1.0 | 1.0 | 0.00 | 2.23 | 2.23 | 99 | 1013.0 |
| 20260510030219 | 68 | 221 | 1.0 | 1.0 | 0.00 | 2.23 | 2.23 | 99 | 1013.2 |
| 20260510025716 | 68 | 221 | 1.0 | 1.0 | 0.00 | 2.23 | 2.23 | 99 | 1013.5 |
| 20260510025213 | 68 | 219 | 1.0 | 1.0 | 0.00 | 2.23 | 2.23 | 99 | 1013.7 |
| 20260510024710 | 68 | 183 | 2.0 | 2.0 | 0.00 | 2.23 | 2.23 | 99 | 1013.7 |
| 20260510024207 | 68 | 226 | 1.0 | 1.0 | 0.00 | 2.23 | 2.23 | 99 | 1013.5 |
| 20260510023702 | 67 | 220 | 1.0 | 1.0 | 0.00 | 2.23 | 2.23 | 99 | 1013.7 |
| 20260510023159 | 67 | 219 | 1.0 | 1.0 | 0.00 | 2.23 | 2.23 | 99 | 1013.3 |
| 20260510022655 | 67 | 214 | 0.0 | 1.0 | 0.00 | 2.23 | 2.23 | 99 | 1013.3 |
| 20260510022150 | 67 | 217 | 0.0 | 1.0 | 0.00 | 2.23 | 2.23 | 99 | 1013.4 |
| 20260510021646 | 67 | 219 | 0.0 | 0.0 | 0.00 | 2.23 | 2.23 | 99 | 1013.2 |
| 20260510021143 | 67 | 216 | 0.0 | 0.0 | 0.00 | 2.23 | 2.23 | 99 | 1013.3 |
| 20260510020638 | 67 | 216 | 0.0 | 0.0 | 0.00 | 2.23 | 2.23 | 99 | 1013.4 |
| 20260510020133 | 67 | 216 | 0.0 | 0.0 | 0.00 | 2.23 | 2.23 | 99 | 1013.3 |
| 20260510015629 | 67 | 214 | 0.0 | 0.0 | 0.00 | 2.23 | 2.23 | 99 | 1013.4 |
| 20260510015126 | 67 | 192 | 0.0 | 1.0 | 0.00 | 2.23 | 2.23 | 99 | 1013.7 |
| 20260510014621 | 67 | 217 | 0.0 | 0.0 | 0.00 | 2.23 | 2.23 | 99 | 1013.8 |
| 20260510014119 | 67 | 213 | 0.0 | 0.0 | 0.00 | 2.23 | 2.23 | 99 | 1013.8 |
| 20260510013619 | 67 | 194 | 0.0 | 0.0 | 0.00 | 2.23 | 2.23 | 99 | 1013.9 |
| 20260510013115 | 67 | 219 | 0.0 | 0.0 | 0.00 | 2.23 | 2.23 | 99 | 1014.1 |
| 20260510012614 | 67 | 217 | 0.0 | 0.0 | 0.00 | 2.23 | 2.23 | 99 | 1014.1 |
| 20260510012111 | 67 | 222 | 0.0 | 1.0 | 0.00 | 2.23 | 2.23 | 99 | 1013.9 |
| 20260510011610 | 67 | 216 | 0.0 | 0.0 | 0.00 | 2.23 | 2.23 | 99 | 1013.9 |
| 20260510011106 | 67 | 210 | 0.0 | 0.0 | 0.00 | 2.23 | 2.23 | 99 | 1014.1 |
| 20260510010603 | 67 | 234 | 1.0 | 1.0 | 0.00 | 2.23 | 2.23 | 99 | 1013.7 |
| 20260510010100 | 67 | 217 | 0.0 | 0.0 | 0.00 | 2.23 | 2.23 | 99 | 1013.4 |
| 20260510005555 | 67 | 225 | 0.0 | 0.0 | 0.00 | 2.23 | 2.23 | 99 | 1013.0 |
| 20260510005054 | 67 | 251 | 0.0 | 0.0 | 0.00 | 2.23 | 2.23 | 99 | 1013.1 |
| 20260510004551 | 67 | 246 | 0.0 | 1.0 | 0.00 | 2.23 | 2.23 | 99 | 1013.3 |
| 20260510004049 | 67 | 292 | 1.0 | 1.0 | 0.00 | 2.23 | 2.23 | 99 | 1013.2 |
| 20260510003546 | 67 | 304 | 1.0 | 1.0 | 0.05 | 2.23 | 2.23 | 99 | 1012.9 |
| 20260510003041 | 67 | 283 | 0.0 | 0.0 | 0.05 | 2.23 | 2.23 | 99 | 1012.8 |
| 20260510002536 | 67 | 247 | 0.0 | 0.0 | 0.00 | 2.22 | 2.22 | 99 | 1012.6 |
| 20260510002034 | 67 | 247 | 0.0 | 0.0 | 0.07 | 2.22 | 2.22 | 99 | 1012.5 |
| 20260510001531 | 67 | 271 | 0.0 | 0.0 | 0.07 | 2.22 | 2.22 | 99 | 1012.5 |
| 20260510001029 | 67 | 267 | 0.0 | 0.0 | 0.05 | 2.21 | 2.21 | 99 | 1012.4 |
| 20260510000524 | 67 | 245 | 3.0 | 3.0 | 0.05 | 2.21 | 2.21 | 99 | 1012.4 |
| 20260510000021 | 67 | 228 | 1.0 | 1.0 | 0.07 | 2.20 | 2.20 | 99 | 1011.9 |
| 20260509235518 | 67 | 250 | 1.0 | 1.0 | 0.05 | 2.19 | 2.19 | 99 | 1011.9 |
| 20260509235015 | 67 | 260 | 1.0 | 1.0 | 0.05 | 2.19 | 2.19 | 99 | 1011.8 |
| 20260509234511 | 67 | 255 | 1.0 | 1.0 | 0.07 | 2.18 | 2.18 | 99 | 1011.9 |
| 20260509234009 | 67 | 146 | 2.0 | 3.0 | 0.12 | 2.18 | 2.18 | 99 | 1011.6 |
| 20260509233506 | 67 | 323 | 3.0 | 3.0 | 0.12 | 2.17 | 2.17 | 99 | 1011.6 |
| 20260509233003 | 67 | 259 | 0.0 | 1.0 | 0.07 | 2.16 | 2.16 | 99 | 1011.7 |
| 20260509232500 | 67 | 188 | 1.0 | 1.0 | 0.07 | 2.15 | 2.15 | 99 | 1011.6 |
| 20260509231956 | 67 | 264 | 0.0 | 1.0 | 0.12 | 2.15 | 2.15 | 99 | 1011.8 |
| 20260509231453 | 67 | 242 | 1.0 | 2.0 | 0.12 | 2.14 | 2.14 | 99 | 1011.6 |
| 20260509230951 | 67 | 249 | 1.0 | 1.0 | 0.07 | 2.13 | 2.13 | 99 | 1011.5 |
| 20260509230447 | 67 | 317 | 0.0 | 1.0 | 0.05 | 2.12 | 2.12 | 99 | 1011.6 |
| 20260509225943 | 67 | 278 | 1.0 | 1.0 | 0.07 | 2.11 | 2.11 | 99 | 1012.0 |
| 20260509225440 | 67 | 259 | 1.0 | 1.0 | 0.12 | 2.11 | 2.11 | 99 | 1012.6 |
| 20260509224936 | 67 | 272 | 0.0 | 1.0 | 0.12 | 2.10 | 2.10 | 99 | 1012.7 |
| 20260509224431 | 67 | 226 | 0.0 | 0.0 | 0.07 | 2.09 | 2.09 | 99 | 1012.7 |
| 20260509223929 | 67 | 277 | 0.0 | 0.0 | 0.12 | 2.08 | 2.08 | 99 | 1012.7 |
| 20260509223425 | 67 | 261 | 0.0 | 0.0 | 0.07 | 2.07 | 2.07 | 99 | 1012.8 |
| 20260509222923 | 66 | 242 | 0.0 | 1.0 | 0.12 | 2.07 | 2.07 | 99 | 1012.9 |
| 20260509222418 | 66 | 262 | 1.0 | 1.0 | 0.12 | 2.06 | 2.06 | 99 | 1012.2 |
| 20260509221914 | 67 | 275 | 1.0 | 2.0 | 0.12 | 2.05 | 2.05 | 99 | 1012.1 |
| 20260509221411 | 67 | 277 | 1.0 | 1.0 | 0.12 | 2.04 | 2.04 | 99 | 1012.4 |
| 20260509220907 | 67 | 272 | 0.0 | 0.0 | 0.14 | 2.03 | 2.03 | 99 | 1012.5 |
| 20260509220402 | 66 | 292 | 0.0 | 0.0 | 0.12 | 2.02 | 2.02 | 99 | 1012.7 |
| 20260509215858 | 66 | 231 | 1.0 | 2.0 | 0.12 | 2.01 | 2.01 | 99 | 1012.8 |
| 20260509215355 | 67 | 238 | 1.0 | 1.0 | 0.12 | 2.00 | 2.00 | 99 | 1012.7 |
| 20260509214852 | 67 | 226 | 2.0 | 3.0 | 0.12 | 1.99 | 1.99 | 99 | 1012.3 |
| 20260509214349 | 66 | 227 | 1.0 | 1.0 | 0.12 | 1.98 | 1.98 | 99 | 1012.0 |
| 20260509213846 | 67 | 216 | 0.0 | 1.0 | 0.12 | 1.97 | 1.97 | 99 | 1011.2 |
| 20260509213341 | 67 | 265 | 0.0 | 0.0 | 0.07 | 1.96 | 1.96 | 99 | 1011.7 |
| 20260509212839 | 67 | 258 | 0.0 | 0.0 | 0.05 | 1.95 | 1.95 | 99 | 1011.9 |
| 20260509212337 | 67 | 264 | 0.0 | 0.0 | 0.12 | 1.94 | 1.94 | 99 | 1012.5 |
| 20260509211832 | 67 | 228 | 1.0 | 1.0 | 0.12 | 1.93 | 1.93 | 99 | 1012.5 |
| 20260509211328 | 67 | 37 | 1.0 | 2.0 | 0.07 | 1.92 | 1.92 | 99 | 1012.2 |
| 20260509210825 | 67 | 213 | 1.0 | 1.0 | 0.05 | 1.91 | 1.91 | 99 | 1012.6 |
| 20260509210323 | 67 | 242 | 0.0 | 0.0 | 0.14 | 1.90 | 1.90 | 99 | 1012.9 |
| 20260509205822 | 67 | 249 | 0.0 | 0.0 | 0.12 | 1.89 | 1.89 | 99 | 1013.3 |
| 20260509205317 | 67 | 238 | 1.0 | 1.0 | 0.12 | 1.88 | 1.88 | 99 | 1013.2 |
| 20260509204814 | 67 | 245 | 0.0 | 0.0 | 0.12 | 1.87 | 1.87 | 99 | 1013.1 |
| 20260509204310 | 67 | 269 | 0.0 | 0.0 | 0.12 | 1.86 | 1.86 | 99 | 1012.8 |
| 20260509203806 | 67 | 279 | 0.0 | 0.0 | 0.12 | 1.85 | 1.85 | 99 | 1012.8 |
| 20260509203304 | 66 | 258 | 0.0 | 0.0 | 0.12 | 1.84 | 1.84 | 99 | 1012.7 |
| 20260509202800 | 66 | 257 | 1.0 | 1.0 | 0.12 | 1.83 | 1.83 | 99 | 1012.6 |
| 20260509202256 | 67 | 156 | 1.0 | 1.0 | 0.17 | 1.82 | 1.82 | 99 | 1012.2 |
| 20260509201750 | 67 | 131 | 3.0 | 3.0 | 0.19 | 1.81 | 1.81 | 99 | 1012.4 |
| 20260509201247 | 67 | 248 | 0.0 | 1.0 | 0.14 | 1.79 | 1.79 | 99 | 1012.3 |
| 20260509200743 | 67 | 263 | 0.0 | 1.0 | 0.12 | 1.78 | 1.78 | 99 | 1012.0 |
| 20260509200243 | 67 | 292 | 1.0 | 1.0 | 0.17 | 1.77 | 1.77 | 99 | 1012.2 |
| 20260509195741 | 67 | 142 | 1.0 | 2.0 | 0.19 | 1.76 | 1.76 | 99 | 1012.1 |
| 20260509195236 | 67 | 266 | 1.0 | 1.0 | 0.12 | 1.74 | 1.74 | 99 | 1012.0 |
| 20260509194736 | 67 | 169 | 1.0 | 2.0 | 0.17 | 1.73 | 1.73 | 99 | 1012.1 |
| 20260509194232 | 67 | 286 | 3.0 | 3.0 | 0.19 | 1.72 | 1.72 | 99 | 1012.0 |
| 20260509193729 | 67 | 95 | 1.0 | 1.0 | 0.12 | 1.70 | 1.70 | 99 | 1012.5 |
| 20260509193229 | 67 | 254 | 0.0 | 0.0 | 0.17 | 1.69 | 1.69 | 99 | 1013.3 |
| 20260509192725 | 67 | 184 | 2.0 | 2.0 | 0.12 | 1.67 | 1.67 | 99 | 1013.3 |
| 20260509192220 | 67 | 255 | 0.0 | 1.0 | 0.19 | 1.66 | 1.66 | 99 | 1012.9 |
| 20260509191716 | 67 | 221 | 1.0 | 1.0 | 0.19 | 1.65 | 1.65 | 99 | 1013.1 |
| 20260509191213 | 67 | 244 | 1.0 | 1.0 | 0.19 | 1.63 | 1.63 | 99 | 1012.9 |
| 20260509190709 | 67 | 340 | 1.0 | 1.0 | 0.17 | 1.62 | 1.62 | 99 | 1013.3 |
| 20260509190206 | 67 | 255 | 1.0 | 1.0 | 0.17 | 1.60 | 1.60 | 99 | 1013.6 |
| 20260509185704 | 67 | 254 | 0.0 | 0.0 | 0.12 | 1.58 | 1.58 | 99 | 1013.9 |
| 20260509185159 | 67 | 240 | 2.0 | 3.0 | 0.19 | 1.57 | 1.57 | 99 | 1013.6 |
| 20260509184657 | 67 | 248 | 0.0 | 1.0 | 0.17 | 1.56 | 1.56 | 99 | 1013.6 |
| 20260509184154 | 67 | 145 | 1.0 | 2.0 | 0.12 | 1.54 | 1.54 | 99 | 1013.3 |
| 20260509183650 | 67 | 252 | 0.0 | 1.0 | 0.14 | 1.53 | 1.53 | 99 | 1013.7 |
| 20260509183145 | 67 | 159 | 0.0 | 1.0 | 0.19 | 1.52 | 1.52 | 99 | 1013.5 |
| 20260509182641 | 67 | 188 | 2.0 | 3.0 | 0.12 | 1.50 | 1.50 | 99 | 1013.8 |
| 20260509182139 | 67 | 253 | 0.0 | 1.0 | 0.12 | 1.49 | 1.49 | 99 | 1013.4 |
| 20260509181637 | 67 | 232 | 1.0 | 2.0 | 0.12 | 1.48 | 1.48 | 99 | 1013.4 |
| 20260509181134 | 67 | 279 | 0.0 | 1.0 | 0.12 | 1.46 | 1.46 | 99 | 1013.3 |
| 20260509180631 | 67 | 232 | 1.0 | 2.0 | 0.12 | 1.45 | 1.45 | 99 | 1013.6 |
| 20260509180127 | 67 | 254 | 0.0 | 1.0 | 0.12 | 1.44 | 1.44 | 99 | 1013.3 |
| 20260509175623 | 67 | 282 | 1.0 | 2.0 | 0.12 | 1.43 | 1.43 | 99 | 1012.9 |
| 20260509175120 | 67 | 248 | 1.0 | 1.0 | 0.12 | 1.42 | 1.42 | 99 | 1012.5 |
| 20260509174616 | 67 | 206 | 1.0 | 1.0 | 0.12 | 1.41 | 1.41 | 99 | 1012.9 |
| 20260509174111 | 67 | 209 | 0.0 | 1.0 | 0.14 | 1.40 | 1.40 | 99 | 1012.8 |
| 20260509173607 | 67 | 278 | 1.0 | 1.0 | 0.19 | 1.39 | 1.39 | 99 | 1013.0 |
| 20260509173103 | 67 | 342 | 1.0 | 1.0 | 0.12 | 1.37 | 1.37 | 99 | 1013.0 |
| 20260509172600 | 67 | 226 | 2.0 | 2.0 | 0.12 | 1.36 | 1.36 | 99 | 1013.0 |
| 20260509172056 | 67 | 254 | 1.0 | 1.0 | 0.12 | 1.35 | 1.35 | 99 | 1013.1 |
| 20260509171552 | 67 | 232 | 0.0 | 0.0 | 0.17 | 1.34 | 1.34 | 99 | 1013.1 |
| 20260509171048 | 67 | 198 | 2.0 | 3.0 | 0.12 | 1.32 | 1.32 | 99 | 1013.0 |
| 20260509170544 | 67 | 272 | 0.0 | 1.0 | 0.19 | 1.31 | 1.31 | 99 | 1012.8 |
| 20260509170040 | 67 | 131 | 2.0 | 2.0 | 0.19 | 1.30 | 1.30 | 99 | 1012.8 |
| 20260509165539 | 67 | 274 | 2.0 | 2.0 | 0.19 | 1.28 | 1.28 | 99 | 1013.1 |
| 20260509165035 | 67 | 292 | 1.0 | 2.0 | 0.17 | 1.27 | 1.27 | 99 | 1013.0 |
| 20260509164531 | 67 | 164 | 2.0 | 3.0 | 0.12 | 1.25 | 1.25 | 99 | 1013.5 |
| 20260509164027 | 67 | 293 | 0.0 | 1.0 | 0.19 | 1.24 | 1.24 | 99 | 1013.9 |
| 20260509163525 | 67 | 265 | 1.0 | 1.0 | 0.19 | 1.22 | 1.22 | 99 | 1013.9 |
| 20260509163021 | 67 | 249 | 0.0 | 0.0 | 0.17 | 1.21 | 1.21 | 99 | 1013.8 |
| 20260509162518 | 67 | 244 | 0.0 | 0.0 | 0.17 | 1.19 | 1.19 | 99 | 1013.3 |
| 20260509162014 | 67 | 277 | 1.0 | 2.0 | 0.19 | 1.18 | 1.18 | 99 | 1013.1 |
| 20260509161510 | 67 | 252 | 1.0 | 2.0 | 0.26 | 1.16 | 1.16 | 99 | 1013.3 |
| 20260509161000 | 66 | 215 | 1.0 | 1.0 | 0.17 | 1.14 | 1.14 | 99 | 1013.6 |
| 20260509160456 | 66 | 259 | 2.0 | 5.0 | 0.17 | 1.12 | 1.12 | 99 | 1013.6 |
| 20260509155956 | 66 | 246 | 4.0 | 7.0 | 0.24 | 1.10 | 1.10 | 99 | 1013.7 |
| 20260509155453 | 66 | 301 | 2.0 | 3.0 | 0.24 | 1.08 | 1.08 | 99 | 1013.1 |
| 20260509154949 | 66 | 245 | 1.0 | 1.0 | 0.17 | 1.06 | 1.06 | 99 | 1013.2 |
| 20260509154445 | 66 | 300 | 2.0 | 2.0 | 0.26 | 1.05 | 1.05 | 99 | 1013.4 |
| 20260509153943 | 66 | 180 | 1.0 | 2.0 | 0.31 | 1.03 | 1.03 | 99 | 1013.7 |
| 20260509153439 | 66 | 305 | 0.0 | 1.0 | 0.28 | 1.01 | 1.01 | 99 | 1013.7 |
| 20260509152937 | 66 | 247 | 0.0 | 0.0 | 0.28 | 0.99 | 0.99 | 99 | 1013.6 |
| 20260509152432 | 66 | 216 | 1.0 | 1.0 | 0.24 | 0.96 | 0.96 | 99 | 1013.5 |
| 20260509151929 | 66 | 267 | 0.0 | 1.0 | 0.24 | 0.94 | 0.94 | 99 | 1013.4 |
| 20260509151425 | 66 | 342 | 1.0 | 1.0 | 0.31 | 0.92 | 0.92 | 99 | 1013.5 |
| 20260509150924 | 66 | 266 | 1.0 | 2.0 | 0.31 | 0.90 | 0.90 | 99 | 1012.9 |
| 20260509150421 | 65 | 214 | 1.0 | 1.0 | 0.24 | 0.87 | 0.87 | 99 | 1013.1 |
| 20260509145920 | 65 | 285 | 2.0 | 3.0 | 0.31 | 0.85 | 0.85 | 99 | 1013.1 |
| 20260509145420 | 65 | 54 | 5.0 | 8.0 | 0.31 | 0.82 | 0.82 | 99 | 1013.3 |
| 20260509144915 | 65 | 240 | 1.0 | 2.0 | 0.31 | 0.80 | 0.80 | 99 | 1013.3 |
| 20260509144412 | 65 | 140 | 1.0 | 2.0 | 0.31 | 0.78 | 0.78 | 99 | 1013.4 |
| 20260509143910 | 65 | 249 | 1.0 | 1.0 | 0.28 | 0.75 | 0.75 | 99 | 1013.2 |
| 20260509143407 | 65 | 253 | 0.0 | 0.0 | 0.31 | 0.72 | 0.72 | 99 | 1013.7 |
| 20260509142903 | 65 | 247 | 1.0 | 1.0 | 0.31 | 0.70 | 0.70 | 99 | 1013.5 |
| 20260509142400 | 65 | 247 | 0.0 | 0.0 | 0.35 | 0.67 | 0.67 | 99 | 1013.1 |
| 20260509141855 | 65 | 321 | 1.0 | 2.0 | 0.28 | 0.64 | 0.64 | 99 | 1012.6 |
| 20260509141352 | 65 | 171 | 1.0 | 1.0 | 0.24 | 0.61 | 0.61 | 99 | 1013.3 |
| 20260509140849 | 65 | 236 | 1.0 | 1.0 | 0.31 | 0.59 | 0.59 | 99 | 1013.0 |
| 20260509140346 | 65 | 314 | 0.0 | 0.0 | 0.31 | 0.57 | 0.57 | 99 | 1013.0 |
| 20260509135844 | 65 | 300 | 1.0 | 1.0 | 0.31 | 0.54 | 0.54 | 99 | 1013.3 |
| 20260509135341 | 65 | 230 | 0.0 | 0.0 | 0.31 | 0.52 | 0.52 | 99 | 1013.5 |
| 20260509134838 | 65 | 181 | 1.0 | 1.0 | 0.24 | 0.49 | 0.49 | 99 | 1013.1 |
| 20260509134335 | 65 | 289 | 0.0 | 0.0 | 0.28 | 0.47 | 0.47 | 99 | 1012.9 |
| 20260509133832 | 65 | 260 | 0.0 | 0.0 | 0.31 | 0.44 | 0.44 | 99 | 1013.5 |
| 20260509133329 | 65 | 250 | 0.0 | 1.0 | 0.31 | 0.42 | 0.42 | 99 | 1013.3 |
| 20260509132828 | 65 | 286 | 0.0 | 1.0 | 0.31 | 0.40 | 0.40 | 99 | 1013.1 |
| 20260509132326 | 65 | 283 | 0.0 | 1.0 | 0.31 | 0.37 | 0.37 | 99 | 1013.2 |
| 20260509131822 | 65 | 147 | 1.0 | 2.0 | 0.28 | 0.34 | 0.34 | 99 | 1013.4 |
| 20260509131319 | 65 | 283 | 1.0 | 2.0 | 0.31 | 0.32 | 0.32 | 99 | 1013.1 |
| 20260509130816 | 65 | 259 | 1.0 | 1.0 | 0.26 | 0.29 | 0.29 | 99 | 1013.0 |
| 20260509130311 | 65 | 247 | 2.0 | 2.0 | 0.35 | 0.27 | 0.27 | 99 | 1013.5 |
| 20260509125808 | 65 | 355 | 2.0 | 2.0 | 0.31 | 0.24 | 0.24 | 99 | 1013.2 |
| 20260509125307 | 65 | 41 | 1.0 | 1.0 | 0.28 | 0.21 | 0.21 | 99 | 1013.3 |
| 20260509124801 | 65 | 265 | 0.0 | 1.0 | 0.31 | 0.18 | 0.18 | 99 | 1013.5 |
| 20260509124257 | 65 | 300 | 1.0 | 1.0 | 0.31 | 0.16 | 0.16 | 99 | 1013.3 |
| 20260509123756 | 65 | 326 | 3.0 | 3.0 | 0.24 | 0.13 | 0.13 | 99 | 1013.9 |
| 20260509123253 | 65 | 316 | 2.0 | 2.0 | 0.24 | 0.11 | 0.11 | 99 | 1013.8 |
| 20260509122748 | 65 | 304 | 2.0 | 2.0 | 0.19 | 0.09 | 0.09 | 99 | 1013.5 |
| 20260509122246 | 66 | 179 | 2.0 | 3.0 | 0.07 | 0.07 | 0.07 | 99 | 1013.5 |
| 20260509121742 | 67 | 257 | 3.0 | 5.0 | 0.00 | 0.06 | 0.06 | 99 | 1013.3 |
| 20260509121239 | 69 | 280 | 3.0 | 5.0 | 0.00 | 0.06 | 0.06 | 99 | 1013.1 |
| 20260509120738 | 70 | 236 | 2.0 | 6.0 | 0.00 | 0.06 | 0.06 | 99 | 1012.9 |
| 20260509120235 | 70 | 301 | 0.0 | 0.0 | 0.00 | 0.06 | 0.06 | 99 | 1012.1 |
| 20260509115733 | 70 | 300 | 0.0 | 0.0 | 0.00 | 0.06 | 0.06 | 99 | 1011.7 |
| 20260509115230 | 70 | 288 | 0.0 | 0.0 | 0.00 | 0.06 | 0.06 | 99 | 1011.7 |
| 20260509114728 | 71 | 351 | 1.0 | 1.0 | 0.00 | 0.06 | 0.06 | 99 | 1011.3 |
| 20260509114227 | 70 | 296 | 0.0 | 0.0 | 0.00 | 0.06 | 0.06 | 99 | 1011.0 |
| 20260509113725 | 70 | 282 | 0.0 | 0.0 | 0.00 | 0.06 | 0.06 | 99 | 1011.1 |
| 20260509113222 | 70 | 262 | 0.0 | 0.0 | 0.00 | 0.06 | 0.06 | 99 | 1010.8 |
| 20260509112718 | 70 | 237 | 2.0 | 2.0 | 0.00 | 0.06 | 0.06 | 99 | 1011.0 |
| 20260509112216 | 70 | 226 | 1.0 | 2.0 | 0.00 | 0.06 | 0.06 | 99 | 1010.8 |
| 20260509111712 | 70 | 254 | 0.0 | 1.0 | 0.00 | 0.06 | 0.06 | 99 | 1010.3 |
| 20260509111209 | 70 | 236 | 2.0 | 3.0 | 0.00 | 0.06 | 0.06 | 99 | 1010.2 |
| 20260509110707 | 70 | 255 | 1.0 | 2.0 | 0.00 | 0.06 | 0.06 | 99 | 1010.0 |
| 20260509110203 | 69 | 284 | 0.0 | 0.0 | 0.00 | 0.06 | 0.06 | 99 | 1010.0 |
| 20260509105701 | 69 | 279 | 1.0 | 1.0 | 0.00 | 0.06 | 0.06 | 99 | 1009.9 |
| 20260509105158 | 70 | 196 | 0.0 | 1.0 | 0.00 | 0.06 | 0.06 | 99 | 1009.8 |
| 20260509104655 | 70 | 263 | 0.0 | 0.0 | 0.00 | 0.06 | 0.06 | 99 | 1010.1 |
| 20260509104152 | 70 | 272 | 0.0 | 0.0 | 0.00 | 0.06 | 0.06 | 99 | 1010.4 |
| 20260509103650 | 70 | 268 | 0.0 | 0.0 | 0.00 | 0.06 | 0.06 | 99 | 1010.3 |
| 20260509103148 | 70 | 266 | 0.0 | 0.0 | 0.00 | 0.06 | 0.06 | 99 | 1010.4 |
| 20260509102646 | 70 | 277 | 0.0 | 0.0 | 0.00 | 0.06 | 0.06 | 99 | 1010.4 |
| 20260509102142 | 69 | 287 | 0.0 | 0.0 | 0.00 | 0.06 | 0.06 | 99 | 1010.4 |
| 20260509101638 | 69 | 263 | 0.0 | 0.0 | 0.00 | 0.06 | 0.06 | 99 | 1010.1 |
| 20260509101135 | 69 | 262 | 0.0 | 0.0 | 0.00 | 0.06 | 0.06 | 99 | 1010.2 |
| 20260509100633 | 69 | 254 | 0.0 | 0.0 | 0.00 | 0.06 | 0.06 | 99 | 1010.0 |
| 20260509100130 | 69 | 270 | 0.0 | 0.0 | 0.00 | 0.06 | 0.06 | 99 | 1009.9 |
| 20260509095626 | 69 | 278 | 0.0 | 1.0 | 0.00 | 0.06 | 0.06 | 99 | 1010.2 |
| 20260509095124 | 69 | 274 | 0.0 | 1.0 | 0.00 | 0.06 | 0.06 | 99 | 1009.9 |
| 20260509094620 | 69 | 260 | 0.0 | 0.0 | 0.00 | 0.06 | 0.06 | 99 | 1009.9 |
| 20260509094117 | 69 | 262 | 0.0 | 0.0 | 0.00 | 0.06 | 0.06 | 99 | 1009.7 |
| 20260509093616 | 69 | 276 | 0.0 | 1.0 | 0.00 | 0.06 | 0.06 | 99 | 1009.6 |
| 20260509093112 | 69 | 271 | 0.0 | 0.0 | 0.00 | 0.06 | 0.06 | 99 | 1010.0 |
| 20260509092610 | 69 | 268 | 0.0 | 1.0 | 0.00 | 0.06 | 0.06 | 99 | 1009.9 |
| 20260509092109 | 69 | 253 | 1.0 | 1.0 | 0.00 | 0.06 | 0.06 | 99 | 1010.0 |
| 20260509091606 | 69 | 268 | 0.0 | 1.0 | 0.00 | 0.06 | 0.06 | 99 | 1009.9 |
| 20260509091102 | 69 | 245 | 0.0 | 0.0 | 0.00 | 0.06 | 0.06 | 99 | 1010.0 |
| 20260509090559 | 69 | 291 | 0.0 | 0.0 | 0.00 | 0.06 | 0.06 | 99 | 1010.1 |
| 20260509090057 | 69 | 282 | 0.0 | 0.0 | 0.00 | 0.06 | 0.06 | 99 | 1010.2 |
| 20260509085554 | 69 | 230 | 0.0 | 0.0 | 0.00 | 0.06 | 0.06 | 99 | 1010.3 |
| 20260509085050 | 69 | 285 | 0.0 | 0.0 | 0.00 | 0.06 | 0.06 | 99 | 1010.4 |
| 20260509084547 | 69 | 206 | 0.0 | 1.0 | 0.00 | 0.06 | 0.06 | 99 | 1010.5 |
| 20260509084044 | 69 | 319 | 1.0 | 1.0 | 0.00 | 0.06 | 0.06 | 99 | 1010.6 |
| 20260509083542 | 69 | 283 | 0.0 | 1.0 | 0.00 | 0.06 | 0.06 | 99 | 1010.6 |
| 20260509083038 | 69 | 276 | 0.0 | 1.0 | 0.00 | 0.06 | 0.06 | 99 | 1011.0 |
| 20260509082536 | 69 | 271 | 0.0 | 0.0 | 0.00 | 0.06 | 0.06 | 99 | 1011.0 |
| 20260509082033 | 69 | 170 | 0.0 | 1.0 | 0.00 | 0.06 | 0.06 | 99 | 1011.0 |
| 20260509081530 | 69 | 272 | 0.0 | 0.0 | 0.00 | 0.06 | 0.06 | 99 | 1011.0 |